TimeEST,TemperatureF,Dew PointF,Humidity,Sea Level PressureIn,VisibilityMPH,Wind Direction,Wind SpeedMPH,Gust SpeedMPH,PrecipitationIn,Events,Conditions,WindDirDegrees,DateUTC
12:56 AM,39.0,30.9,73,30.37,7.0,North,3.5,-,N/A,,Scattered Clouds,10,2012-11-16 05:56:00
1:56 AM,37.0,30.0,76,30.37,7.0,Calm,Calm,-,N/A,,Scattered Clouds,0,2012-11-16 06:56:00
2:56 AM,36.0,30.0,79,30.37,7.0,Calm,Calm,-,N/A,,Scattered Clouds,0,2012-11-16 07:56:00
3:56 AM,33.1,30.0,89,30.38,6.0,Calm,Calm,-,N/A,,Scattered Clouds,0,2012-11-16 08:56:00
4:56 AM,33.1,28.9,85,30.38,6.0,Calm,Calm,-,N/A,,Scattered Clouds,0,2012-11-16 09:56:00
5:56 AM,33.1,28.9,85,30.40,5.0,North,3.5,-,N/A,,Scattered Clouds,360,2012-11-16 10:56:00
6:56 AM,32.0,28.9,88,30.41,5.0,Calm,Calm,-,N/A,,Partly Cloudy,0,2012-11-16 11:56:00
7:56 AM,33.1,28.9,85,30.43,3.0,Calm,Calm,-,N/A,,Scattered Clouds,0,2012-11-16 12:56:00
8:56 AM,36.0,30.9,82,30.45,4.0,NNE,4.6,-,N/A,,Haze,20,2012-11-16 13:56:00
9:56 AM,39.9,32.0,73,30.45,5.0,North,4.6,-,N/A,,Haze,360,2012-11-16 14:56:00
10:56 AM,46.0,34.0,63,30.45,6.0,North,5.8,-,N/A,,Haze,350,2012-11-16 15:56:00
11:56 AM,48.9,34.0,56,30.44,7.0,North,4.6,-,N/A,,Clear,10,2012-11-16 16:56:00
12:56 PM,50.0,34.0,54,30.43,7.0,North,6.9,-,N/A,,Clear,360,2012-11-16 17:56:00
1:56 PM,52.0,34.0,50,30.42,10.0,NNW,4.6,-,N/A,,Clear,330,2012-11-16 18:56:00
2:56 PM,54.0,30.9,41,30.40,10.0,North,6.9,-,N/A,,Clear,360,2012-11-16 19:56:00
3:56 PM,54.0,28.9,38,30.41,10.0,NNE,9.2,-,N/A,,Clear,20,2012-11-16 20:56:00
4:56 PM,52.0,30.0,43,30.41,10.0,NNE,9.2,-,N/A,,Clear,20,2012-11-16 21:56:00
5:56 PM,48.0,30.0,50,30.43,10.0,NNE,5.8,-,N/A,,Clear,20,2012-11-16 22:56:00
6:56 PM,48.0,30.0,50,30.43,10.0,NNE,4.6,-,N/A,,Clear,20,2012-11-16 23:56:00
7:56 PM,44.1,30.0,58,30.45,10.0,North,5.8,-,N/A,,Partly Cloudy,360,2012-11-17 00:56:00
8:56 PM,44.1,30.0,58,30.46,10.0,NE,4.6,-,N/A,,Partly Cloudy,40,2012-11-17 01:56:00
9:56 PM,42.1,30.9,65,30.46,10.0,NE,5.8,-,N/A,,Partly Cloudy,50,2012-11-17 02:56:00
10:56 PM,42.1,32.0,67,30.46,10.0,Calm,Calm,-,N/A,,Partly Cloudy,0,2012-11-17 03:56:00
11:56 PM,39.9,32.0,73,30.46,9.0,NNW,3.5,-,N/A,,Partly Cloudy,340,2012-11-17 04:56:00